This is the latest recevied weather packets stored in our database for station/object VE6CWS-7. If no packets are shown the sender has not sent any weather packets the latest 10 day(s).
| Time | Temp. | Humidity | Pressure | Rain* | Wind** | Luminosity | Snow |
|---|---|---|---|---|---|---|---|
| 1778195743 | 22.22° C | 25% | 1007.3 hPa | 0 mm | - | - | - |
| 1778194901 | 21.67° C | 24% | 1007.2 hPa | 0 mm | - | - | - |
| 1778193958 | 21.11° C | 25% | 1007.5 hPa | 0 mm | - | - | - |
| 1778193050 | 21.11° C | 25% | 1007.7 hPa | 0 mm | - | - | - |
| 1778192148 | 21.11° C | 26% | 1007.6 hPa | 0 mm | - | - | - |
| 1778191307 | 21.67° C | 24% | 1007.9 hPa | 0 mm | - | - | - |
| 1778190349 | 21.11° C | 25% | 1007.8 hPa | 0 mm | - | - | - |
| 1778189443 | 21.11° C | 27% | 1007.9 hPa | 0 mm | - | - | - |
| 1778188535 | 20.56° C | 26% | 1008.1 hPa | 0 mm | - | - | - |
| 1778187693 | 21.11° C | 26% | 1008.2 hPa | 0 mm | - | - | - |
| 1778186738 | 20° C | 28% | 1008.3 hPa | 0 mm | - | - | - |
| 1778185844 | 20° C | 28% | 1008.3 hPa | 0 mm | - | - | - |
| 1778184937 | 20.56° C | 27% | 1008.2 hPa | 0 mm | - | - | - |
| 1778184095 | 20.56° C | 28% | 1008.1 hPa | 0 mm | - | - | - |
| 1778183146 | 20.56° C | 27% | 1008 hPa | 0 mm | - | - | - |
| 1778182247 | 20° C | 27% | 1008 hPa | 0 mm | - | - | - |
| 1778181342 | 20° C | 28% | 1008.1 hPa | 0 mm | - | - | - |
| 1778180499 | 20° C | 28% | 1008.2 hPa | 0 mm | - | - | - |
| 1778179557 | 20° C | 33% | 1008.1 hPa | 0 mm | - | - | - |
| 1778178650 | 19.44° C | 36% | 1008.1 hPa | 0 mm | - | - | - |
| 1778177746 | 18.89° C | 38% | 1008.2 hPa | 0 mm | - | - | - |
| 1778176906 | 18.89° C | 38% | 1008.2 hPa | 0 mm | - | - | - |
| 1778175938 | 18.89° C | 39% | 1008.2 hPa | 0 mm | - | - | - |
| 1778175037 | 18.33° C | 39% | 1008.3 hPa | 0 mm | - | - | - |
| 1778174132 | 17.78° C | 42% | 1008.4 hPa | 0 mm | - | - | - |
* Rain latest hour (hover to see other rain measurements)
** Current wind speed in m/s (hover to see current wind gust speed)